QFA2897 YMML-YSSY

Flight info

Callsign QFA2897
Flight time 1h 1m
Altitude 35000
Route DOSEL Y59 RIVET
Aircraft B738/M-SDE2E3FGHIRWXY/LB1

Departure

Time 2026-05-06 20:00
Airport Melbourne Airport (YMML)

Arrival

Time 2026-05-06 21:01
Airport Sydney Kingsford Smith International Airport (YSSY)
Time Latitude Longitude Altitude Speed Heading
2026-05-06 19:32 -37.66719 144.84905 427 ft 0 kts 82°
2026-05-06 19:49 -37.66721 144.84886 399 ft 2 kts 77°
2026-05-06 19:49 -37.66725 144.84866 397 ft 2 kts 71°
2026-05-06 19:49 -37.66732 144.84847 396 ft 2 kts 49°
2026-05-06 19:50 -37.66746 144.84835 398 ft 2 kts
2026-05-06 19:50 -37.66759 144.84838 397 ft 1 kts 340°
2026-05-06 19:50 -37.66761 144.84838 397 ft 0 kts 339°
2026-05-06 19:53 -37.66745 144.84830 396 ft 5 kts 336°
2026-05-06 19:53 -37.66713 144.84816 399 ft 6 kts 343°
2026-05-06 19:53 -37.66632 144.84794 402 ft 15 kts 352°
2026-05-06 19:54 -37.66528 144.84793 405 ft 15 kts 350°
2026-05-06 19:54 -37.66431 144.84777 409 ft 14 kts
2026-05-06 19:54 -37.66350 144.84784 408 ft 5 kts
2026-05-06 19:54 -37.66348 144.84785 409 ft 0 kts
2026-05-06 19:57 -37.66324 144.84787 408 ft 7 kts
2026-05-06 19:57 -37.66276 144.84790 410 ft 7 kts
2026-05-06 19:57 -37.66235 144.84769 409 ft 7 kts 300°
2026-05-06 19:57 -37.66223 144.84731 412 ft 0 kts 276°
2026-05-06 19:59 -37.66213 144.84567 410 ft 58 kts 274°
2026-05-06 19:59 -37.66168 144.83683 432 ft 138 kts 264°
2026-05-06 19:59 -37.66086 144.82306 982 ft 170 kts 275°
2026-05-06 20:00 -37.65954 144.80808 2213 ft 171 kts 268°
2026-05-06 20:00 -37.65875 144.79286 3249 ft 180 kts 265°
2026-05-06 20:00 -37.65794 144.77714 4029 ft 174 kts 265°
2026-05-06 20:00 -37.65712 144.76189 4928 ft 176 kts 264°
2026-05-06 20:01 -37.65628 144.74642 5801 ft 176 kts 264°
2026-05-06 20:01 -37.65545 144.73117 6678 ft 174 kts 264°
2026-05-06 20:01 -37.65460 144.71595 7537 ft 172 kts 263°
2026-05-06 20:01 -37.65377 144.70044 8204 ft 180 kts 264°
2026-05-06 20:02 -37.65199 144.68469 8837 ft 194 kts 281°
2026-05-06 20:02 -37.64531 144.66944 9550 ft 204 kts 294°
2026-05-06 20:02 -37.63538 144.65589 10221 ft 216 kts 311°
2026-05-06 20:02 -37.62248 144.64552 10845 ft 226 kts 328°
2026-05-06 20:03 -37.60749 144.63876 11413 ft 233 kts 336°
2026-05-06 20:03 -37.59157 144.63279 11937 ft 243 kts 337°
2026-05-06 20:03 -37.57507 144.62670 12468 ft 252 kts 337°
2026-05-06 20:03 -37.55774 144.62094 12988 ft 267 kts 348°
2026-05-06 20:04 -37.53882 144.62424 13533 ft 286 kts 26°
2026-05-06 20:04 -37.52354 144.64035 14134 ft 292 kts 56°
2026-05-06 20:04 -37.51147 144.66149 14687 ft 303 kts 58°
2026-05-06 20:04 -37.49899 144.68349 15216 ft 315 kts 57°
2026-05-06 20:05 -37.48577 144.70624 15761 ft 327 kts 56°
2026-05-06 20:05 -37.47200 144.72976 16308 ft 338 kts 59°
2026-05-06 20:05 -37.45953 144.75478 16869 ft 346 kts 63°
2026-05-06 20:05 -37.44751 144.78129 17412 ft 350 kts 64°
2026-05-06 20:06 -37.43551 144.80840 17983 ft 358 kts 64°
2026-05-06 20:06 -37.42320 144.83610 18546 ft 367 kts 64°
2026-05-06 20:06 -37.41049 144.86438 19040 ft 375 kts 64°
2026-05-06 20:06 -37.39745 144.89320 19546 ft 382 kts 64°
2026-05-06 20:07 -37.38416 144.92229 20053 ft 389 kts 64°
2026-05-06 20:07 -37.37049 144.95210 20572 ft 395 kts 64°
2026-05-06 20:07 -37.35658 144.98233 21096 ft 401 kts 65°
2026-05-06 20:07 -37.34250 145.01285 21631 ft 405 kts 65°
2026-05-06 20:08 -37.32824 145.04365 22179 ft 409 kts 65°
2026-05-06 20:08 -37.31390 145.07464 22732 ft 413 kts 65°
2026-05-06 20:08 -37.29940 145.10596 23303 ft 416 kts 65°
2026-05-06 20:08 -37.28498 145.13710 23840 ft 418 kts 65°
2026-05-06 20:09 -37.27032 145.16874 24184 ft 424 kts 65°
2026-05-06 20:09 -37.25514 145.20151 24183 ft 441 kts 64°
2026-05-06 20:09 -37.23951 145.23518 24407 ft 448 kts 64°
2026-05-06 20:09 -37.22371 145.26908 24826 ft 451 kts 64°
2026-05-06 20:10 -37.20784 145.30314 25225 ft 454 kts 63°
2026-05-06 20:10 -37.19189 145.33736 25641 ft 456 kts 63°
2026-05-06 20:10 -37.17584 145.37175 26058 ft 458 kts 63°
2026-05-06 20:10 -37.15948 145.40608 26466 ft 460 kts 60°
2026-05-06 20:11 -37.14162 145.43943 26914 ft 462 kts 57°
2026-05-06 20:11 -37.12918 145.46121 27204 ft 463 kts 56°
2026-05-06 20:11 -37.11005 145.49375 27636 ft 465 kts 55°
2026-05-06 20:11 -37.09076 145.52626 28079 ft 465 kts 54°
2026-05-06 20:12 -37.07149 145.55889 28526 ft 466 kts 54°
2026-05-06 20:12 -37.05231 145.59163 28975 ft 466 kts 55°
2026-05-06 20:12 -37.03327 145.62436 29410 ft 466 kts 54°
2026-05-06 20:12 -37.01431 145.65713 29817 ft 467 kts 54°
2026-05-06 20:13 -36.99514 145.69034 30241 ft 468 kts 54°
2026-05-06 20:13 -36.97609 145.72336 30587 ft 468 kts 54°
2026-05-06 20:13 -36.95695 145.75651 30938 ft 468 kts 54°
2026-05-06 20:13 -36.93784 145.78957 31294 ft 468 kts 53°
2026-05-06 20:14 -36.91876 145.82253 31572 ft 470 kts 53°
2026-05-06 20:14 -36.89952 145.85573 31816 ft 473 kts 53°
2026-05-06 20:14 -36.88037 145.88874 32074 ft 476 kts 53°
2026-05-06 20:14 -36.86091 145.92224 32310 ft 478 kts 53°
2026-05-06 20:15 -36.84136 145.95587 32563 ft 480 kts 53°
2026-05-06 20:15 -36.82172 145.98962 32805 ft 481 kts 53°
2026-05-06 20:15 -36.80199 146.02347 33062 ft 483 kts 52°
2026-05-06 20:15 -36.78226 146.05730 33315 ft 484 kts 52°
2026-05-06 20:16 -36.76234 146.09144 33572 ft 485 kts 52°
2026-05-06 20:16 -36.74243 146.12550 33827 ft 486 kts 52°
2026-05-06 20:16 -36.72250 146.15958 34086 ft 487 kts 51°
2026-05-06 20:16 -36.70252 146.19372 34318 ft 488 kts 51°
2026-05-06 20:17 -36.68242 146.22801 34536 ft 488 kts 51°
2026-05-06 20:17 -36.66238 146.26216 34758 ft 488 kts 51°
2026-05-06 20:17 -36.64230 146.29636 34980 ft 489 kts 51°
2026-05-06 20:17 -36.62221 146.33053 35159 ft 490 kts 51°
2026-05-06 20:18 -36.58145 146.39971 35158 ft 502 kts 50°
2026-05-06 20:18 -36.53989 146.47013 35166 ft 512 kts 50°
2026-05-06 20:19 -36.49703 146.54264 35163 ft 521 kts 50°
2026-05-06 20:19 -36.45407 146.61517 35144 ft 524 kts 50°
2026-05-06 20:20 -36.41088 146.68799 35144 ft 522 kts 50°
2026-05-06 20:20 -36.36773 146.76052 35137 ft 521 kts 49°
2026-05-06 20:21 -36.32486 146.83241 35144 ft 522 kts 49°
2026-05-06 20:21 -36.28154 146.90490 35146 ft 524 kts 49°
2026-05-06 20:22 -36.23814 146.97741 35144 ft 524 kts 49°
2026-05-06 20:22 -36.19472 147.04981 35131 ft 522 kts 49°
2026-05-06 20:23 -36.15138 147.12189 35123 ft 520 kts 48°
2026-05-06 20:23 -36.10811 147.19369 35133 ft 521 kts 48°
2026-05-06 20:24 -36.06478 147.26548 35127 ft 522 kts 48°
2026-05-06 20:24 -36.02137 147.33730 35121 ft 521 kts 47°
2026-05-06 20:25 -35.97790 147.40898 35119 ft 521 kts 47°
2026-05-06 20:25 -35.93437 147.48069 35123 ft 521 kts 47°
2026-05-06 20:26 -35.89113 147.55183 35123 ft 521 kts 47°
2026-05-06 20:26 -35.84756 147.62333 35127 ft 521 kts 46°
2026-05-06 20:27 -35.80395 147.69466 35128 ft 520 kts 46°
2026-05-06 20:27 -35.76024 147.76599 35126 ft 521 kts 46°
2026-05-06 20:28 -35.71687 147.83664 35115 ft 521 kts 46°
2026-05-06 20:28 -35.67319 147.90768 35120 ft 520 kts 45°
2026-05-06 20:29 -35.62940 147.97875 35124 ft 520 kts 45°
2026-05-06 20:29 -35.58556 148.04974 35116 ft 520 kts 45°
2026-05-06 20:30 -35.52006 148.15557 35098 ft 521 kts 45°
2026-05-06 20:31 -35.47620 148.22625 35101 ft 523 kts 45°
2026-05-06 20:31 -35.43238 148.29676 35102 ft 522 kts 45°
2026-05-06 20:32 -35.38809 148.36772 35091 ft 523 kts 44°
2026-05-06 20:32 -35.34381 148.43848 35081 ft 522 kts 44°
2026-05-06 20:33 -35.29959 148.50902 35070 ft 520 kts 44°
2026-05-06 20:33 -35.25585 148.57870 35069 ft 519 kts 44°
2026-05-06 20:34 -35.21188 148.64854 35052 ft 517 kts 44°
2026-05-06 20:34 -35.16791 148.71823 35044 ft 516 kts 44°
2026-05-06 20:34 -35.14608 148.75290 34563 ft 512 kts 44°
2026-05-06 20:35 -35.12453 148.78712 34092 ft 504 kts 43°
2026-05-06 20:35 -35.10317 148.82097 33565 ft 501 kts 43°
2026-05-06 20:35 -35.08185 148.85459 33060 ft 503 kts 43°
2026-05-06 20:35 -35.06022 148.88858 32608 ft 507 kts 43°
2026-05-06 20:36 -35.03869 148.92246 32130 ft 500 kts 43°
2026-05-06 20:36 -35.01763 148.95573 31663 ft 493 kts 43°
2026-05-06 20:36 -34.99702 148.98822 31220 ft 491 kts 42°
2026-05-06 20:36 -34.97580 149.02156 30776 ft 488 kts 42°
2026-05-06 20:37 -34.95525 149.05381 30354 ft 486 kts 42°
2026-05-06 20:37 -34.93457 149.08624 29879 ft 484 kts 42°
2026-05-06 20:37 -34.91384 149.11868 29364 ft 484 kts 42°
2026-05-06 20:37 -34.89309 149.15109 28868 ft 488 kts 42°
2026-05-06 20:38 -34.87206 149.18391 28390 ft 492 kts 43°
2026-05-06 20:38 -34.85087 149.21700 27889 ft 496 kts 43°
2026-05-06 20:38 -34.82973 149.25005 27409 ft 495 kts 43°
2026-05-06 20:38 -34.80889 149.28265 26939 ft 494 kts 43°
2026-05-06 20:39 -34.78749 149.31607 26465 ft 492 kts 43°
2026-05-06 20:39 -34.76673 149.34843 26011 ft 491 kts 43°
2026-05-06 20:39 -34.74572 149.38127 25563 ft 494 kts 45°
2026-05-06 20:39 -34.72679 149.41682 25114 ft 504 kts 54°
2026-05-06 20:40 -34.71133 149.45218 24697 ft 501 kts 55°
2026-05-06 20:40 -34.69553 149.48956 24209 ft 491 kts 56°
2026-05-06 20:40 -34.68013 149.52616 23743 ft 482 kts 56°
2026-05-06 20:40 -34.66481 149.56218 23196 ft 474 kts 56°
2026-05-06 20:41 -34.64987 149.59680 22662 ft 466 kts 55°
2026-05-06 20:41 -34.63465 149.63176 22101 ft 454 kts 55°
2026-05-06 20:41 -34.62010 149.66504 21556 ft 442 kts 55°
2026-05-06 20:41 -34.60563 149.69793 21051 ft 439 kts 55°
2026-05-06 20:42 -34.59144 149.73011 20546 ft 436 kts 55°
2026-05-06 20:42 -34.57720 149.76238 20057 ft 433 kts 55°
2026-05-06 20:42 -34.56305 149.79447 19566 ft 430 kts 56°
2026-05-06 20:42 -34.54899 149.82641 19087 ft 427 kts 56°
2026-05-06 20:43 -34.53502 149.85814 18608 ft 424 kts 56°
2026-05-06 20:43 -34.52114 149.88964 18103 ft 422 kts 56°
2026-05-06 20:43 -34.50733 149.92092 17577 ft 421 kts 56°
2026-05-06 20:43 -34.49347 149.95221 17052 ft 421 kts 56°
2026-05-06 20:44 -34.47964 149.98346 16536 ft 421 kts 56°
2026-05-06 20:44 -34.46584 150.01467 16025 ft 419 kts 56°
2026-05-06 20:44 -34.45214 150.04561 15608 ft 414 kts 56°
2026-05-06 20:44 -34.43858 150.07619 15370 ft 409 kts 57°
2026-05-06 20:45 -34.42512 150.10661 15127 ft 410 kts 57°
2026-05-06 20:45 -34.41156 150.13716 14891 ft 413 kts 57°
2026-05-06 20:45 -34.39808 150.16745 14638 ft 413 kts 56°
2026-05-06 20:45 -34.38441 150.19794 14399 ft 409 kts 57°
2026-05-06 20:46 -34.37101 150.22814 14147 ft 405 kts 57°
2026-05-06 20:46 -34.35777 150.25801 13910 ft 402 kts 57°
2026-05-06 20:46 -34.34450 150.28786 13648 ft 401 kts 57°
2026-05-06 20:46 -34.33127 150.31753 13381 ft 400 kts 57°
2026-05-06 20:47 -34.31823 150.34674 13124 ft 399 kts 57°
2026-05-06 20:47 -34.30486 150.37663 12838 ft 397 kts 57°
2026-05-06 20:47 -34.29196 150.40548 12575 ft 393 kts 57°
2026-05-06 20:47 -34.27805 150.43348 12298 ft 384 kts 49°
2026-05-06 20:48 -34.26087 150.45775 12054 ft 378 kts 41°
2026-05-06 20:48 -34.24290 150.48095 11808 ft 377 kts 41°
2026-05-06 20:48 -34.22504 150.50397 11543 ft 375 kts 41°
2026-05-06 20:48 -34.20724 150.52697 11299 ft 374 kts 42°
2026-05-06 20:49 -34.18950 150.54998 11049 ft 373 kts 42°
2026-05-06 20:49 -34.17185 150.57293 10792 ft 372 kts 42°
2026-05-06 20:49 -34.15432 150.59577 10570 ft 370 kts 42°
2026-05-06 20:49 -34.13686 150.61855 10315 ft 369 kts 42°
2026-05-06 20:50 -34.11949 150.64120 10068 ft 366 kts 42°
2026-05-06 20:50 -34.10222 150.66373 9823 ft 364 kts 42°
2026-05-06 20:50 -34.08505 150.68611 9557 ft 362 kts 43°
2026-05-06 20:50 -34.06796 150.70836 9296 ft 360 kts 43°
2026-05-06 20:51 -34.05121 150.73016 8548 ft 358 kts 43°
2026-05-06 20:51 -34.03413 150.75230 7790 ft 353 kts 43°
2026-05-06 20:51 -34.01751 150.77387 7050 ft 350 kts 43°
2026-05-06 20:51 -34.00125 150.79503 6331 ft 347 kts 44°
2026-05-06 20:52 -33.98487 150.81633 5558 ft 344 kts 43°
2026-05-06 20:52 -33.96865 150.83740 4807 ft 343 kts 44°
2026-05-06 20:52 -33.95283 150.85792 4058 ft 341 kts 44°
2026-05-06 20:52 -33.93666 150.87887 3382 ft 338 kts 44°
2026-05-06 20:53 -33.92104 150.89914 3135 ft 320 kts 44°
2026-05-06 20:53 -33.90632 150.91825 2977 ft 302 kts 44°
2026-05-06 20:53 -33.89243 150.93622 2859 ft 284 kts 44°
2026-05-06 20:53 -33.87947 150.95299 2854 ft 261 kts 43°
2026-05-06 20:54 -33.86773 150.96822 2842 ft 237 kts 43°
2026-05-06 20:54 -33.85685 150.98228 2846 ft 230 kts 43°
2026-05-06 20:54 -33.84588 150.99641 2866 ft 227 kts 43°
2026-05-06 20:54 -33.83539 151.00988 2840 ft 218 kts 43°
2026-05-06 20:55 -33.82526 151.02295 2826 ft 210 kts 43°
2026-05-06 20:55 -33.81539 151.03569 2836 ft 208 kts 43°
2026-05-06 20:55 -33.80543 151.04852 2848 ft 211 kts 43°
2026-05-06 20:55 -33.79534 151.06150 2864 ft 214 kts 43°
2026-05-06 20:56 -33.78509 151.07466 2846 ft 215 kts 43°
2026-05-06 20:56 -33.77834 151.08335 2859 ft 213 kts 43°
2026-05-06 20:56 -33.77008 151.10412 2838 ft 209 kts 95°
2026-05-06 20:56 -33.77267 151.11505 2850 ft 204 kts 127°
2026-05-06 20:57 -33.78303 151.12549 2879 ft 193 kts 160°
2026-05-06 20:57 -33.79849 151.13453 2692 ft 179 kts 168°
2026-05-06 20:57 -33.80627 151.13783 2542 ft 173 kts 169°
2026-05-06 20:57 -33.81741 151.14196 2335 ft 168 kts 173°
2026-05-06 20:58 -33.82879 151.14527 2096 ft 168 kts 175°
2026-05-06 20:58 -33.84009 151.14827 1876 ft 166 kts 175°
2026-05-06 20:58 -33.85143 151.15123 1655 ft 167 kts 174°
2026-05-06 20:58 -33.86280 151.15420 1427 ft 163 kts 173°
2026-05-06 20:59 -33.87312 151.15691 1212 ft 145 kts 173°
2026-05-06 20:59 -33.88259 151.15938 1012 ft 135 kts 173°
2026-05-06 20:59 -33.89155 151.16217 827 ft 133 kts 166°
2026-05-06 20:59 -33.90064 151.16389 671 ft 132 kts 181°
2026-05-06 21:00 -33.90973 151.16642 460 ft 139 kts 166°
2026-05-06 21:00 -33.91901 151.16904 278 ft 133 kts 172°
2026-05-06 21:00 -33.92779 151.17125 114 ft 130 kts 172°
2026-05-06 21:00 -33.93675 151.17350 31 ft 128 kts 171°
2026-05-06 21:01 -33.94428 151.17547 29 ft 90 kts 166°
2026-05-06 21:01 -33.94897 151.17650 28 ft 47 kts 175°
2026-05-06 21:01 -33.95112 151.17620 27 ft 24 kts 197°
2026-05-06 21:01 -33.95143 151.17600 28 ft 0 kts 227°
2026-05-06 21:03 -33.95149 151.17591 28 ft 7 kts 232°
2026-05-06 21:03 -33.95163 151.17560 28 ft 4 kts 253°
2026-05-06 21:03 -33.95149 151.17529 28 ft 5 kts 340°
2026-05-06 21:03 -33.95091 151.17512 29 ft 9 kts 339°
2026-05-06 21:04 -33.94990 151.17488 29 ft 24 kts 346°
2026-05-06 21:04 -33.94801 151.17439 29 ft 28 kts 347°
2026-05-06 21:04 -33.94616 151.17387 29 ft 26 kts 350°
2026-05-06 21:04 -33.94443 151.17344 27 ft 25 kts 336°
2026-05-06 21:05 -33.94281 151.17299 29 ft 23 kts 351°
2026-05-06 21:05 -33.94125 151.17264 27 ft 22 kts 345°
2026-05-06 21:05 -33.93994 151.17236 28 ft 12 kts 12°
2026-05-06 21:05 -33.93953 151.17298 27 ft 0 kts 75°
2026-05-06 21:08 -33.93951 151.17306 27 ft 6 kts 75°
2026-05-06 21:09 -33.93928 151.17410 26 ft 16 kts 75°
2026-05-06 21:09 -33.93897 151.17532 27 ft 15 kts 71°
2026-05-06 21:09 -33.93870 151.17647 28 ft 14 kts 74°
2026-05-06 21:09 -33.93829 151.17753 29 ft 14 kts 30°
2026-05-06 21:10 -33.93741 151.17782 29 ft 13 kts 13°
2026-05-06 21:10 -33.93652 151.17806 29 ft 13 kts 12°
2026-05-06 21:10 -33.93574 151.17824 29 ft 0 kts 347°
2026-05-06 21:10 -33.93571 151.17819 29 ft 2 kts 308°
2026-05-06 21:11 -33.93567 151.17789 29 ft 7 kts 279°
2026-05-06 21:11 -33.93563 151.17761 29 ft 0 kts 278°